Miscellaneous Local Product
Issued by NWS Hastings, NE

Home | Current Version | Previous Version | Text Only | Print | Product List | Glossary On
Versions: 1 2 3 4 5 6 7 8 9 10 11 12 13 14 15 16 17 18 19 20 21 22 23 24 25 26 27 28 29 30 31 32 33 34 35 36 37 38 39 40 41 42 43 44 45 46 47 48 49 50
000
AXUS43 KGID 200602
MISGRI

GID CWA HOURLY WEATHER ROUNDUP
NATIONAL WEATHER SERVICE HASTINGS NE
1200 AM CST SAT DEC 20 2014

NOTE: "FAIR" INDICATES FEW OR NO CLOUDS BELOW 12,000 FEET WITH NO
SIGNIFICANT WEATHER AND/OR OBSTRUCTIONS TO VISIBILITY.

...SOUTH CENTRAL NEBRASKA...

CITY           SKY/WX    TMP DP  RH WIND       PRES   REMARKS
GRAND ISLAND   FOG       32  31  96 S8        30.05S VSB 1/2 WCI  25
HASTINGS       FOG       31  30  96 S7        30.03S VSB 1/4 WCI  24
KEARNEY        CLOUDY    25  21  86 S3        30.03S VSB 1/2
ORD            FOG       26  25  96 S5        30.02R VSB 1/4 WCI  20
YORK           FOG       32  32 100 CALM      30.07S VSB 1/2
AURORA         FOG       33  33 100 S8        30.05S VSB 1/2 WCI  25
LEXINGTON      CLEAR     24  22  94 NW3       30.03R
HOLDREGE       CLEAR     24  23  93 CALM      30.02S
HEBRON         CLOUDY    33  32  96 S7        30.09F FOG     WCI  26

...NEBRASKA PANHANDLE...

CITY           SKY/WX    TMP DP  RH WIND       PRES   REMARKS
CHADRON        PTCLDY    15  11  83 SW6       29.96F WCI   6
ALLIANCE       PTCLDY    14  13  95 CALM      29.98R
SCOTTSBLUFF    PTCLDY    16  12  84 CALM      29.99S
SIDNEY         CLEAR     18  13  80 W7        30.01R WCI   9

...WESTERN AND NORTH CENTRAL NEBRASKA...

CITY           SKY/WX    TMP DP  RH WIND       PRES   REMARKS
VALENTINE      CLEAR     14  12  92 SW7       29.98F WCI   4
AINSWORTH      CLEAR     20  17  89 W7        29.98S WCI  11
ONEILL         FOG       27  27 100 S3        30.01S VSB 1/2
BROKEN BOW     CLEAR     27  23  85 W8        30.00R WCI  19
IMPERIAL       CLEAR     29  20  69 W10       30.03S WCI  20
NORTH PLATTE   CLEAR     18  15  88 NW6       30.03R FOG     WCI  10
MCCOOK         CLEAR     29  24  82 W10       30.04S WCI  20

...EASTERN NEBRASKA...

CITY           SKY/WX    TMP DP  RH WIND       PRES   REMARKS
NORFOLK        CLOUDY    34  31  88 S8        30.05F FOG     WCI  27
SO SIOUX CITY  CLOUDY    33  29  85 SE10      30.11S WCI  25
TEKAMAH        CLOUDY    32  29  88 SE13      30.12F WCI  22
COLUMBUS       CLOUDY    34  28  80 S8        30.09S WCI  27
ALBION         CLOUDY    32  31  95 S6        30.04F FOG     WCI  27
OMAHA EPPLEY   DRIZZLE   31  29  92 SE14      30.14F FOG     WCI  21
OFFUTT AFB     CLOUDY    31  29  90 SE9       30.14S WCI  23
MILLARD        CLOUDY    32  30  92 SE8       30.14S FOG     WCI  25
LINCOLN        CLOUDY    33  30  88 S10       30.12F WCI  25
NEBRASKA CITY  CLOUDY    30  30 100 S8        30.15S FOG     WCI  23
BEATRICE       CLOUDY    32  30  93 S9        30.11F WCI  24
FALLS CITY     CLOUDY    31  27  85 S9        30.17S WCI  23

...NORTHERN KANSAS...

CITY           SKY/WX    TMP DP  RH WIND       PRES   REMARKS
GOODLAND       MOCLDY    33  28  81 SW10      30.05S WCI  25
HILL CITY      CLEAR     35  29  78 SW9       30.06S WCI  28
NORTON         CLEAR     28  23  80 W7        30.04R WCI  21
PHILLIPSBURG   CLEAR     37  30  75 SW13      30.04F WCI  29
SMITH CENTER   CLEAR     25  25 100 SE5       30.06S FOG     WCI  19
BELOIT         CLEAR     28  28 100 SE6       30.07F WCI  22
HAYS           CLEAR     30  23  74 CALM      30.09S
RUSSELL        MOCLDY    34  32  92 SW13      30.07F WCI  25
CONCORDIA      PTCLDY    31  31 100 S13       30.08F FOG     WCI  21
SALINA         CLEAR     31  29  92 S9        30.13S FOG     WCI  23
TOPEKA         CLOUDY    34  29  82 CALM      30.22S



USA.gov is the U.S. government's official web portal to all federal, state and local government web resources and services.